Regional Weather Roundup
Issued by NWS

Home | Current Version | Previous Version | Graphics & Text | Print | Product List | Glossary On
Versions: 1 2 3 4 5 6 7 8 9 10 11 12 13 14 15 16 17 18 19 20 21 22 23 24 25 26 27 28 29 30 31 32 33 34 35 36 37 38 39 40 41 42 43 44 45 46 47 48 49 50
000
ASUS43 KFSD 280502
RWRSD

WEATHER ROUNDUP FOR SOUTH DAKOTA
NATIONAL WEATHER SERVICE SIOUX FALLS SD
1100 PM CST SAT DEC 27 2014

NOTE: "FAIR" INDICATES FEW OR NO CLOUDS BELOW 12,000 FEET WITH NO
SIGNIFICANT WEATHER AND/OR OBSTRUCTIONS TO VISIBILITY.


SDZ001>005-009-010-012>017-280600-
NORTHWEST AND NORTH CENTRAL SOUTH DAKOTA

CITY           SKY/WX    TMP DP  RH WIND       PRES   REMARKS
BUFFALO          N/A     21  16  81 W9        29.90S WCI  11
FAITH            N/A     18  10  71 W7        30.00F WCI   9
MOBRIDGE       CLOUDY    17  12  80 N3        30.01F
$$

SDZ012>016-024>037-041>051-057-063-072>074-280600-
SOUTHWEST AND SOUTH CENTRAL SOUTH DAKOTA

CITY           SKY/WX    TMP DP  RH WIND       PRES   REMARKS
RAPID CTY ARPT CLEAR     13   5  70 W6        30.02S WCI   4
PIERRE         CLEAR     16  12  84 SW8       30.06S WCI   5
CUSTER         CLEAR     10   5  80 CALM      29.93S
ELLSWORTH AFB  CLEAR     15   6  70 W8        30.01S WCI   3
PHILIP         CLEAR      9   6  88 W10       30.06F WCI  -5
PINE RIDGE     CLEAR     12   5  73 SW7       30.06S WCI   1
WINNER         FAIR      20   9  62 SW9       30.08S WCI   9
$$

SDZ004>011-016>023-039-040-280600-
NORTHEAST SOUTH DAKOTA

CITY           SKY/WX    TMP DP  RH WIND       PRES   REMARKS
ABERDEEN       PTCLDY    14  11  87 S5        30.07R WCI   6
WATERTOWN      CLEAR      5   2  87 S6        30.05S WCI  -6
SISSETON         N/A     21  16  81 W16       30.04R WCI   7
$$

SDZ017-020-022-023-036>040-048>070-280600-
SOUTHEAST SOUTH DAKOTA

CITY           SKY/WX    TMP DP  RH WIND       PRES   REMARKS
SIOUX FALLS    PTCLDY     9   6  88 S3        30.12S
HURON          CLEAR     12   8  84 S6        30.08S WCI   3
MITCHELL       PTCLDY     8   5  87 S3        30.11S
YANKTON        PTCLDY    10   9  92 CALM      30.15F
$$

ABBREVIATIONS USED IN REMARKS
   TC - TEMPERATURE IN CELSIUS
  WCI - WIND CHILL INDEX
   HX - HEAT INDEX
  VSB - VISIBILITY




USA.gov is the U.S. government's official web portal to all federal, state and local government web resources and services.